Hourly Weather Gölcük

Today, 18 May, Tuesday

Time Temperature Precipitation Wind Pressure Humidity
00:00 +20°C° 0 mm 1 mps 754 mmHg 63%
01:00 +19°C° 0 mm 1 mps 754 mmHg 63%
02:00 +18°C° 0 mm 2 mps 754 mmHg 64%
03:00 +18°C° 0 mm 2 mps 754 mmHg 63%
04:00 +20°C° 0 mm 1 mps 754 mmHg 62%
05:00 +20°C° 0 mm 1 mps 754 mmHg 61%
06:00 +21°C° 0 mm 1 mps 754 mmHg 62%
07:00 +22°C° 0 mm 1 mps 754 mmHg 62%
08:00 +22°C° 0 mm 1 mps 754 mmHg 63%
09:00 +24°C° 0 mm 1 mps 754 mmHg 57%
10:00 +26°C° 0 mm 1 mps 754 mmHg 51%
11:00 +28°C° 0 mm 2 mps 754 mmHg 45%
12:00 +27°C° 0 mm 3 mps 754 mmHg 50%
13:00 +26°C° 0 mm 3 mps 755 mmHg 56%
14:00 +25°C° 0 mm 4 mps 755 mmHg 61%
15:00 +22°C° 0.2 mm 4 mps 755 mmHg 68%
16:00 +20°C° 0.2 mm 4 mps 756 mmHg 75%
17:00 +18°C° 0.2 mm 4 mps 757 mmHg 82%
18:00 +17°C° 0.3 mm 3 mps 758 mmHg 85%
19:00 +17°C° 0.3 mm 3 mps 758 mmHg 88%
20:00 +16°C° 0.3 mm 2 mps 759 mmHg 91%
21:00 +15°C° 0 mm 2 mps 759 mmHg 91%
22:00 +15°C° 0 mm 1 mps 759 mmHg 90%
23:00 +15°C° 0 mm 1 mps 759 mmHg 90%

Tomorrow, 19 May, Wednesday

Time Temperature Precipitation Wind Pressure Humidity
00:00 +15°C° 0 mm 1 mps 759 mmHg 89%
01:00 +14°C° 0 mm 1 mps 759 mmHg 89%
02:00 +14°C° 0 mm 1 mps 759 mmHg 88%
03:00 +14°C° 0 mm 1 mps 759 mmHg 88%
04:00 +14°C° 0 mm 1 mps 759 mmHg 87%
05:00 +14°C° 0 mm 2 mps 759 mmHg 87%
06:00 +16°C° 0 mm 1 mps 759 mmHg 80%
07:00 +19°C° 0 mm 1 mps 759 mmHg 73%
08:00 +21°C° 0 mm 1 mps 759 mmHg 66%
09:00 +23°C° 0 mm 1 mps 759 mmHg 56%
10:00 +24°C° 0 mm 1 mps 759 mmHg 46%
11:00 +26°C° 0 mm 1 mps 759 mmHg 36%
12:00 +27°C° 0 mm 1 mps 758 mmHg 35%
13:00 +27°C° 0 mm 1 mps 758 mmHg 34%
14:00 +27°C° 0 mm 2 mps 757 mmHg 33%
15:00 +27°C° 0 mm 2 mps 757 mmHg 40%
16:00 +26°C° 0 mm 3 mps 757 mmHg 46%
17:00 +25°C° 0 mm 3 mps 756 mmHg 52%
18:00 +22°C° 0 mm 3 mps 756 mmHg 58%
19:00 +20°C° 0 mm 3 mps 756 mmHg 64%
20:00 +18°C° 0 mm 2 mps 756 mmHg 71%
21:00 +18°C° 0 mm 2 mps 756 mmHg 68%
22:00 +18°C° 0 mm 2 mps 756 mmHg 65%
23:00 +18°C° 0 mm 2 mps 755 mmHg 62%

Day after tomorrow, 20 May, Thursday

Time Temperature Precipitation Wind Pressure Humidity
00:00 +18°C° 0 mm 2 mps 755 mmHg 62%
01:00 +19°C° 0 mm 1 mps 755 mmHg 62%
02:00 +19°C° 0 mm 1 mps 754 mmHg 62%
03:00 +19°C° 0 mm 1 mps 754 mmHg 62%
04:00 +19°C° 0 mm 1 mps 754 mmHg 62%
05:00 +19°C° 0 mm 1 mps 754 mmHg 62%
06:00 +21°C° 0 mm 1 mps 754 mmHg 59%
07:00 +23°C° 0 mm 1 mps 754 mmHg 55%
08:00 +25°C° 0 mm 1 mps 754 mmHg 52%
09:00 +26°C° 0 mm 2 mps 754 mmHg 50%
10:00 +27°C° 0 mm 2 mps 754 mmHg 48%
11:00 +28°C° 0 mm 2 mps 754 mmHg 46%
12:00 +28°C° 0 mm 3 mps 754 mmHg 48%
13:00 +28°C° 0 mm 3 mps 753 mmHg 49%
14:00 +28°C° 0 mm 3 mps 753 mmHg 51%
15:00 +26°C° 0 mm 3 mps 753 mmHg 55%
16:00 +25°C° 0 mm 3 mps 754 mmHg 59%
17:00 +24°C° 0 mm 3 mps 754 mmHg 63%
18:00 +21°C° 0 mm 3 mps 754 mmHg 72%
19:00 +19°C° 0 mm 3 mps 755 mmHg 81%
20:00 +17°C° 0 mm 2 mps 755 mmHg 90%
21:00 +17°C° 0 mm 2 mps 755 mmHg 91%
22:00 +16°C° 0 mm 2 mps 756 mmHg 92%
23:00 +16°C° 0 mm 1 mps 756 mmHg 93%

21 May, Friday

Time Temperature Precipitation Wind Pressure Humidity
00:00 +15°C° 0 mm 1 mps 756 mmHg 93%
01:00 +15°C° 0 mm 1 mps 755 mmHg 93%
02:00 +15°C° 0 mm 1 mps 755 mmHg 93%
03:00 +15°C° 0 mm 1 mps 755 mmHg 93%
04:00 +15°C° 0 mm 1 mps 755 mmHg 94%
05:00 +15°C° 0 mm 1 mps 755 mmHg 94%
06:00 +16°C° 0 mm 2 mps 755 mmHg 88%
07:00 +18°C° 0 mm 2 mps 755 mmHg 83%
08:00 +19°C° 0 mm 3 mps 755 mmHg 77%
09:00 +19°C° 0 mm 3 mps 755 mmHg 75%
10:00 +20°C° 0 mm 3 mps 755 mmHg 73%
11:00 +21°C° 0 mm 3 mps 755 mmHg 71%
12:00 +21°C° 0 mm 4 mps 755 mmHg 71%
13:00 +21°C° 0 mm 4 mps 754 mmHg 71%
14:00 +21°C° 0 mm 5 mps 754 mmHg 71%
15:00 +21°C° 0 mm 4 mps 754 mmHg 74%
16:00 +20°C° 0 mm 4 mps 754 mmHg 77%
17:00 +19°C° 0 mm 4 mps 753 mmHg 79%
18:00 +18°C° 0.1 mm 4 mps 753 mmHg 84%
19:00 +18°C° 0.1 mm 3 mps 753 mmHg 89%
20:00 +17°C° 0.1 mm 3 mps 753 mmHg 93%
21:00 +17°C° 0.6 mm 3 mps 753 mmHg 94%
22:00 +17°C° 0.6 mm 3 mps 752 mmHg 95%
23:00 +17°C° 0.6 mm 4 mps 752 mmHg 95%

22 May, Saturday

Time Temperature Precipitation Wind Pressure Humidity
00:00 +17°C° 0.5 mm 3 mps 752 mmHg 96%
01:00 +17°C° 0.5 mm 3 mps 752 mmHg 96%
02:00 +16°C° 0.5 mm 2 mps 752 mmHg 96%
03:00 +16°C° 0.5 mm 2 mps 752 mmHg 96%
04:00 +16°C° 0.5 mm 2 mps 752 mmHg 96%
05:00 +16°C° 0.5 mm 2 mps 752 mmHg 96%
06:00 +17°C° 0.1 mm 2 mps 752 mmHg 92%
07:00 +18°C° 0.1 mm 2 mps 752 mmHg 88%
08:00 +19°C° 0.1 mm 2 mps 753 mmHg 84%
09:00 +20°C° 0.2 mm 2 mps 753 mmHg 78%
10:00 +21°C° 0.2 mm 2 mps 753 mmHg 73%
11:00 +23°C° 0.2 mm 2 mps 753 mmHg 67%
12:00 +23°C° 0.7 mm 2 mps 753 mmHg 67%
13:00 +22°C° 0.7 mm 3 mps 753 mmHg 67%
14:00 +22°C° 0.7 mm 3 mps 753 mmHg 66%
15:00 +21°C° 0.9 mm 3 mps 753 mmHg 71%
16:00 +21°C° 0.9 mm 3 mps 754 mmHg 75%
17:00 +20°C° 0.9 mm 3 mps 754 mmHg 79%
18:00 +19°C° 0.3 mm 3 mps 754 mmHg 83%
19:00 +18°C° 0.3 mm 3 mps 754 mmHg 88%
20:00 +17°C° 0.3 mm 2 mps 754 mmHg 92%
21:00 +16°C° 0.1 mm 3 mps 755 mmHg 93%
22:00 +16°C° 0.1 mm 3 mps 755 mmHg 94%
23:00 +15°C° 0.1 mm 4 mps 755 mmHg 95%

23 May, Sunday

Time Temperature Precipitation Wind Pressure Humidity
00:00 +15°C° 0.1 mm 4 mps 755 mmHg 94%
01:00 +15°C° 0.1 mm 4 mps 755 mmHg 94%
02:00 +15°C° 0.1 mm 4 mps 755 mmHg 94%
03:00 +14°C° 0.1 mm 4 mps 755 mmHg 94%
04:00 +14°C° 0.1 mm 4 mps 755 mmHg 95%
05:00 +14°C° 0.1 mm 4 mps 755 mmHg 95%
06:00 +15°C° 0.1 mm 4 mps 755 mmHg 93%
07:00 +15°C° 0.1 mm 4 mps 755 mmHg 91%
08:00 +15°C° 0.1 mm 4 mps 755 mmHg 89%
09:00 +16°C° 1.2 mm 3 mps 755 mmHg 91%
10:00 +16°C° 1.2 mm 3 mps 755 mmHg 92%
11:00 +16°C° 1.2 mm 3 mps 755 mmHg 94%
12:00 +16°C° 2.5 mm 3 mps 755 mmHg 94%
13:00 +16°C° 2.5 mm 3 mps 755 mmHg 95%
14:00 +16°C° 2.5 mm 3 mps 755 mmHg 95%
15:00 +16°C° 2.6 mm 3 mps 755 mmHg 96%
16:00 +17°C° 2.6 mm 3 mps 755 mmHg 96%
17:00 +17°C° 2.6 mm 4 mps 755 mmHg 96%
18:00 +17°C° 0.9 mm 3 mps 755 mmHg 96%
19:00 +17°C° 0.9 mm 3 mps 755 mmHg 96%
20:00 +17°C° 0.9 mm 3 mps 756 mmHg 97%
21:00 +17°C° 0.2 mm 3 mps 756 mmHg 97%
22:00 +17°C° 0.2 mm 3 mps 756 mmHg 97%
23:00 +17°C° 0.2 mm 3 mps 756 mmHg 97%
Show more